Location: Home
(42.5358°N, 72.7383°W)
Time: 08:41:50
(UTC-04:00)

A-11 Canister half - Pass Details

Date: 01 July 2022
Orbit: 1514 x 1685 km, 47.2° (Epoch: 15 August)

Event Time Altitude Azimuth Distance (km) Brightness Sun altitude
Rises 23:00:59 0° 238° (WSW) 4,927 11.6 -19.3°
Reaches altitude 10° 23:04:09 10° 237° (WSW) 3,944 11.1 -19.6°
Maximum altitude 23:14:20 82° 152° (SSE) 1,693 9.0 -20.4°
Drops below altitude 10° 23:24:23 10° 67° (ENE) 3,893 11.1 -21.2°
Sets 23:27:29 0° 66° (ENE) 4,862 11.7 -21.4°
